Location: ????? ??????
(37.8317°N, 23.8750°E)
Time: 13:46:16
(UTC+00:00)

Meteor 1-24 Rocket - Pass Details

Date: 20 January 2021
Orbit: 791 x 926 km, 81.3° (Epoch: 03 March)

Event Time Altitude Azimuth Distance (km) Brightness Sun altitude
Rises 15:54:36 0° 184° (S) 3,336 7.2 -4.4°
Reaches altitude 10° 15:57:00 10° 183° (S) 2,392 6.4 -4.9°
Maximum altitude 16:02:23 79° 97° (E) 817 3.6 -5.9°
Drops below altitude 10° 16:07:42 10° 11° (NNE) 2,365 5.7 -6.8°
Sets 16:10:04 0° 11° (N) 3,296 6.5 -7.3°
